Weather History for Creston, IA

Change the Weather History Date:

Tuesday, February 12, 2013

  Actual Average Record
Temperature  
Mean Temperature 32 °F -  
Max Temperature 44 °F 34 °F 69 °F (1990)
Min Temperature 19 °F 15 °F -17 °F (1955)
Degree Days  
Heating Degree Days 34    
Moisture  
Dew Point 21 °F    
Average Humidity 70    
Maximum Humidity 86    
Minimum Humidity 39    
Precipitation  
Precipitation 0.00 in - - ()
Sea Level Pressure  
Sea Level Pressure 30.02 in    
Wind  
Wind Speed 6 mph (SW)    
Max Wind Speed 14 mph    
Max Gust Speed 18 mph    
Visibility 9 miles    
Events      
Averages and records for this station are not official NWS values.
T = Trace of Precipitation, MM = Missing Value Source: NWS Daily Summary

Daily Weather History Graph

Daily Weather History Graph

Search for Another Location

Airport:

Trip Planner

Search our weather history database for the weather conditions in past years. The results will help you decide how hot, cold, wet, or windy it might be!

Date:

Astronomy

Feb. 12, 2013 Rise Set
Actual Time 7:15 AM CST 5:48 PM CST
Civil Twilight 6:47 AM CST 6:16 PM CST
Nautical Twilight 6:14 AM CST 6:49 PM CST
Astronomical Twilight 5:42 AM CST 7:21 PM CST
Moon 8:11 AM CST (2/12) 8:52 PM CST (2/12)
Length of Visible Light 11h 29m
Length of Day
10h 33m
Waxing Crescent, 7% of the Moon is Illuminated
Feb 12
Waxing Crescent
Feb 17
First Quarter
Feb 25
Full
Mar 4
Last Quarter
Mar 11
New

Hourly Weather History & Observations

Time (CST) Temp. Windchill Dew Point Humidity Pressure Visibility Wind Dir Wind Speed Gust Speed Precip Events Conditions
12:15 AM 23.0 °F 15.8 °F 17.6 °F 80% 30.14 in 10.0 mi WSW 5.8 mph - N/A   Clear
12:35 AM 21.2 °F 14.9 °F 17.6 °F 86% 30.14 in 10.0 mi West 4.6 mph - N/A   Clear
12:55 AM 23.0 °F 17.0 °F 19.4 °F 86% 30.14 in 10.0 mi West 4.6 mph - N/A   Clear
1:15 AM 23.0 °F 18.4 °F 19.4 °F 86% 30.13 in 10.0 mi West 3.5 mph - N/A   Clear
1:35 AM 21.2 °F 13.6 °F 17.6 °F 86% 30.14 in 10.0 mi West 5.8 mph - N/A   Clear
1:55 AM 21.2 °F 13.6 °F 17.6 °F 86% 30.14 in 10.0 mi West 5.8 mph - N/A   Clear
2:15 AM 21.2 °F 16.4 °F 17.6 °F 86% 30.14 in 10.0 mi West 3.5 mph - N/A   Clear
2:35 AM 21.2 °F 14.9 °F 17.6 °F 86% 30.14 in 10.0 mi WNW 4.6 mph - N/A   Clear
2:55 AM 21.2 °F 13.6 °F 17.6 °F 86% 30.13 in 10.0 mi WNW 5.8 mph - N/A   Clear
3:15 AM 21.2 °F - 17.6 °F 86% 30.12 in 10.0 mi Calm Calm - N/A   Clear
3:35 AM 21.2 °F - 17.6 °F 86% 30.11 in 7.0 mi Calm Calm - N/A   Clear
3:55 AM 21.2 °F - 17.6 °F 86% 30.10 in 7.0 mi Calm Calm - N/A   Clear
4:15 AM 21.2 °F - 17.6 °F 86% 30.09 in 7.0 mi Calm Calm - N/A   Clear
4:35 AM 21.2 °F - 17.6 °F 86% 30.09 in 7.0 mi Calm Calm - N/A   Clear
4:55 AM 19.4 °F 14.3 °F 15.8 °F 86% 30.10 in 7.0 mi South 3.5 mph - N/A   Clear
5:15 AM 19.4 °F - 15.8 °F 86% 30.10 in 7.0 mi Calm Calm - N/A   Clear
5:35 AM 19.4 °F 11.5 °F 15.8 °F 86% 30.11 in 7.0 mi SSW 5.8 mph - N/A   Clear
5:55 AM 19.4 °F 10.4 °F 15.8 °F 86% 30.11 in 7.0 mi SSW 6.9 mph - N/A   Clear
6:15 AM 19.4 °F 14.3 °F 15.8 °F 86% 30.11 in 7.0 mi SW 3.5 mph - N/A   Clear
6:35 AM 19.4 °F 14.3 °F 15.8 °F 86% 30.11 in 7.0 mi SW 3.5 mph - N/A   Clear
6:55 AM 19.4 °F 12.8 °F 15.8 °F 86% 30.10 in 7.0 mi SSW 4.6 mph - N/A   Clear
7:15 AM 19.4 °F 12.8 °F 15.8 °F 86% 30.10 in 7.0 mi SSW 4.6 mph - N/A   Clear
7:35 AM 19.4 °F 12.8 °F 15.8 °F 86% 30.09 in 7.0 mi SSW 4.6 mph - N/A   Clear
7:55 AM 21.2 °F 14.9 °F 15.8 °F 80% 30.08 in 7.0 mi SSW 4.6 mph - N/A   Clear
8:15 AM 23.0 °F 15.8 °F 19.4 °F 86% 30.08 in 7.0 mi SSW 5.8 mph - N/A   Clear
8:35 AM 24.8 °F 14.6 °F 19.4 °F 80% 30.08 in 10.0 mi South 10.4 mph - N/A   Clear
8:55 AM 26.6 °F 18.2 °F 21.2 °F 80% 30.07 in 10.0 mi SSW 8.1 mph - N/A   Clear
9:15 AM 26.6 °F 18.2 °F 21.2 °F 80% 30.08 in 10.0 mi SSW 8.1 mph - N/A   Clear
9:35 AM 28.4 °F 19.1 °F 21.2 °F 74% 30.07 in 10.0 mi South 10.4 mph - N/A   Clear
9:55 AM 30.2 °F 23.4 °F 24.8 °F 80% 30.07 in 10.0 mi SW 6.9 mph - N/A   Clear
10:15 AM 32.0 °F 24.8 °F 26.6 °F 80% 30.06 in 10.0 mi SSW 8.1 mph - N/A   Clear
10:35 AM 33.8 °F 27.7 °F 26.6 °F 75% 30.06 in 10.0 mi SW 6.9 mph - N/A   Clear
10:55 AM 35.6 °F 28.6 °F 24.8 °F 65% 30.06 in 10.0 mi SSW 9.2 mph - N/A   Clear
11:15 AM 37.4 °F 29.3 °F 24.8 °F 60% 30.06 in 10.0 mi SW 12.7 mph - N/A   Clear
11:35 AM 37.4 °F 30.3 °F 24.8 °F 60% 30.07 in 10.0 mi SSW 10.4 mph - N/A   Clear
11:55 AM 37.4 °F 30.3 °F 24.8 °F 60% 30.05 in 10.0 mi SW 10.4 mph - N/A   Clear
12:15 PM 39.2 °F 32.5 °F 24.8 °F 56% 30.04 in 10.0 mi WSW 10.4 mph - N/A   Clear
12:35 PM 39.2 °F 32.0 °F 23.0 °F 52% 30.02 in 10.0 mi WSW 11.5 mph - N/A   Clear
12:55 PM 41.0 °F 34.3 °F 23.0 °F 49% 30.00 in 10.0 mi SW 11.5 mph - N/A   Clear
1:15 PM 42.8 °F 36.2 °F 21.2 °F 42% 29.99 in 10.0 mi WSW 12.7 mph - N/A   Clear
1:35 PM 42.8 °F 36.2 °F 23.0 °F 46% 29.99 in 10.0 mi WSW 12.7 mph - N/A   Clear
1:55 PM 42.8 °F 36.6 °F 23.0 °F 46% 29.98 in 10.0 mi WSW 11.5 mph - N/A   Clear
2:15 PM 42.8 °F 36.2 °F 21.2 °F 42% 29.97 in 10.0 mi SW 12.7 mph 18.4 mph N/A   Clear
2:35 PM 42.8 °F 35.8 °F 21.2 °F 42% 29.96 in 10.0 mi WSW 13.8 mph - N/A   Clear
2:55 PM 42.8 °F 36.2 °F 21.2 °F 42% 29.96 in 10.0 mi WSW 12.7 mph 18.4 mph N/A   Clear
3:15 PM 44.6 °F 38.1 °F 21.2 °F 39% 29.95 in 10.0 mi WSW 13.8 mph 18.4 mph N/A   Clear
3:35 PM 44.6 °F 38.4 °F 21.2 °F 39% 29.94 in 10.0 mi WSW 12.7 mph - N/A   Clear
3:55 PM 44.6 °F 39.2 °F 21.2 °F 39% 29.94 in 10.0 mi WSW 10.4 mph - N/A   Clear
4:15 PM 44.6 °F 39.7 °F 23.0 °F 43% 29.94 in 10.0 mi SW 9.2 mph - N/A   Clear
4:35 PM 42.8 °F 37.5 °F 24.8 °F 49% 29.93 in 10.0 mi SW 9.2 mph - N/A   Clear
4:55 PM 42.8 °F 38.0 °F 24.8 °F 49% 29.93 in 10.0 mi SW 8.1 mph - N/A   Clear
5:15 PM 39.2 °F 34.2 °F 24.8 °F 56% 29.93 in 10.0 mi SSW 6.9 mph - N/A   Clear
5:35 PM 37.4 °F 32.1 °F 24.8 °F 60% 29.93 in 10.0 mi SSW 6.9 mph - N/A   Clear
5:55 PM 37.4 °F 33.8 °F 24.8 °F 60% 29.92 in 10.0 mi SW 4.6 mph - N/A   Clear
6:15 PM 35.6 °F 30.7 °F 24.8 °F 65% 29.92 in 10.0 mi SSW 5.8 mph - N/A   Clear
6:35 PM 35.6 °F 29.9 °F 24.8 °F 65% 29.92 in 10.0 mi SSW 6.9 mph - N/A   Clear
6:55 PM 33.8 °F 28.6 °F 23.0 °F 65% 29.91 in 10.0 mi SSW 5.8 mph - N/A   Clear
7:15 PM 33.8 °F 28.6 °F 23.0 °F 65% 29.91 in 10.0 mi SSW 5.8 mph - N/A   Clear
7:35 PM 33.8 °F 29.6 °F 24.8 °F 70% 29.91 in 10.0 mi SSW 4.6 mph - N/A   Clear
8:15 PM 33.8 °F 28.6 °F 23.0 °F 65% 29.91 in 10.0 mi SW 5.8 mph - N/A   Clear
8:35 PM 30.2 °F 21.9 °F 23.0 °F 75% 29.90 in 10.0 mi SSW 9.2 mph - N/A   Clear
8:55 PM 33.8 °F 25.3 °F 23.0 °F 65% 29.90 in 10.0 mi SSW 11.5 mph - N/A   Clear
9:15 PM 33.8 °F 25.8 °F 23.0 °F 65% 29.90 in 10.0 mi SSW 10.4 mph - N/A   Clear
9:35 PM 32.0 °F 23.6 °F 23.0 °F 69% 29.89 in 10.0 mi SSW 10.4 mph - N/A   Clear
9:55 PM 32.0 °F 23.6 °F 23.0 °F 69% 29.89 in 10.0 mi SSW 10.4 mph - N/A   Clear
10:15 PM 30.2 °F 23.4 °F 21.2 °F 69% 29.89 in 10.0 mi SSW 6.9 mph - N/A   Clear
10:35 PM 30.2 °F 23.4 °F 21.2 °F 69% 29.90 in 10.0 mi SW 6.9 mph - N/A   Clear
10:55 PM 30.2 °F 23.4 °F 21.2 °F 69% 29.89 in 10.0 mi WSW 6.9 mph - N/A   Clear
11:15 PM 28.4 °F 21.2 °F 21.2 °F 74% 29.89 in 10.0 mi WSW 6.9 mph - N/A   Clear
11:35 PM 28.4 °F 22.2 °F 21.2 °F 74% 29.89 in 10.0 mi WSW 5.8 mph - N/A   Clear
11:55 PM 26.6 °F - 21.2 °F 80% 29.88 in 10.0 mi Calm Calm - N/A   Clear